Flag for U.S.A. Weather past 2 weeks in New Salem, North Dakota, U.S.A.

Now
47 °F

Sunny.


Feels Like: 42 °F
Forecast: 33 / 44 °F
Wind: 12 mph from Northwest

Location: Bismarck Municipal Airport

Current Time: Jan 26, 2015 at 12:52:11 PM

Latest Report: Jan 26, 2015 at 11:52 AM


Visibility: 10 mi

Pressure: 30.01 "Hg

Humidity: 48%

Dew point: 28 °F

Location of New SalemLocation

Historic Weather in New Salem — Graph

°F

New Salem temperature yesterday

Maximum temperature yesterday: 37 °F (at 12:52 AM)
Minimum temperature yesterday: 34 °F (at 11:52 PM)
Average temperature yesterday: 36 °F

Past Weeks' High & Low Weather Summary

 TemperatureHumidityPressure
High47 °F (Jan 26, 11:52 AM)96% (Jan 13, 9:52 PM)30.89 "Hg (Jan 13, 9:52 PM)
Low-18 °F (Jan 12, 7:52 AM)48% (Jan 26, 11:52 AM)29.57 "Hg (Jan 17, 12:52 AM)
Average26 °F78%30.07 "Hg
* Reported Jan 11 11:52 AM — Jan 26 11:52 AM, New Salem, Weather by CustomWeather, © 2014

Note: Actual official high and low records may vary slightly from our data, if they occured in-between our weather recording intervals... More about our weather records

Advertising

New Salem weather history for previous 24 hours

 ConditionsComfort  
Time TempWeatherWind HumidityBarometerVisibility
11:52 AM
Jan 26
47 °FSunny.12 mph48%30.01 "Hg10 mi
10:52 AM45 °FSunny.14 mph58%29.99 "Hg10 mi
9:52 AM41 °FSunny.9 mph70%29.98 "Hg10 mi
8:52 AM38 °FSunny.8 mph79%29.95 "Hg10 mi
7:52 AM37 °FClear.8 mph79%29.93 "Hg10 mi
6:52 AM38 °FPassing clouds.7 mph79%29.91 "Hg10 mi
5:52 AM41 °FPassing clouds.10 mph67%29.88 "Hg10 mi
4:52 AM41 °FPartly cloudy.12 mph67%29.87 "Hg10 mi
3:52 AM41 °FClear.13 mph70%29.86 "Hg10 mi
2:52 AM41 °FClear.9 mph67%29.86 "Hg10 mi
1:52 AM40 °FClear.12 mph73%29.84 "Hg10 mi
12:52 AM38 °FClear.12 mph79%29.83 "Hg10 mi
11:52 PM
Jan 25
34 °FClear.5 mph85%29.82 "Hg10 mi
10:52 PM35 °FClear.No wind82%29.83 "Hg10 mi
9:52 PM37 °FClear.5 mph79%29.83 "Hg10 mi
8:52 PM37 °FClear.3 mph79%29.87 "Hg10 mi
7:52 PM36 °FClear.3 mph85%29.89 "Hg10 mi
6:52 PM36 °FPassing clouds.5 mph85%29.93 "Hg10 mi
5:52 PM36 °FOvercast.3 mph85%29.94 "Hg10 mi
4:52 PM37 °FOvercast.5 mph82%29.96 "Hg10 mi
3:52 PM37 °FOvercast.5 mph82%29.98 "Hg10 mi
2:52 PM37 °FOvercast.3 mph82%29.98 "Hg10 mi
1:52 PM36 °FOvercast.7 mph82%30.02 "Hg10 mi
12:52 PM36 °FOvercast.9 mph85%30.04 "Hg7 mi
12:02 PM35 °FMostly cloudy.10 mph88%30.00 "Hg9 mi
Weather by CustomWeather, © 2014

See weather overviewHow to use our weather pages